Location: Ladrillo (historical)
(32.8195°N, 117.2231°W)
Time: 10:38:23
(UTC+00:00)

Tiangong - Pass Details

Date: 03 October 2021
Orbit: 382 x 385 km, 41.5° (Epoch: 17 October)

Event Time Altitude Azimuth Distance (km) Brightness Sun altitude
Exits shadow 12:41:42 12° 326° (NW) 1,288 3.4 -14.0°
Maximum altitude 12:43:41 19° 10° (N) 977 3.2 -13.6°
Drops below altitude 10° 12:46:03 10° 59° (ENE) 1,394 4.9 -13.1°
Sets 12:48:30 0° 78° (ENE) 2,245 6.9 -12.6°
